TimeEST,TemperatureF,Dew PointF,Humidity,Sea Level PressureIn,VisibilityMPH,Wind Direction,Wind SpeedMPH,Gust SpeedMPH,PrecipitationIn,Events,Conditions,WindDirDegrees,DateUTC
12:51 AM,30.9,24.1,76,30.27,10.0,West,10.4,-,N/A,,Overcast,270,2011-12-17 05:51:00
1:51 AM,30.9,23.0,72,30.24,10.0,SW,4.6,-,N/A,,Overcast,230,2011-12-17 06:51:00
2:51 AM,30.9,21.0,67,30.27,10.0,WNW,11.5,17.3,N/A,,Overcast,290,2011-12-17 07:51:00
3:51 AM,30.9,21.0,67,30.25,10.0,West,6.9,-,N/A,,Overcast,260,2011-12-17 08:51:00
4:51 AM,30.0,21.0,69,30.26,10.0,West,8.1,-,N/A,,Overcast,270,2011-12-17 09:51:00
5:51 AM,30.0,21.9,72,30.27,10.0,WNW,11.5,-,N/A,,Overcast,300,2011-12-17 10:51:00
6:51 AM,30.0,21.0,69,30.27,10.0,WNW,9.2,-,N/A,,Overcast,300,2011-12-17 11:51:00
7:51 AM,28.4,19.4,69,30.21,10.0,NW,11.5,-,N/A,,Overcast,310,2011-12-17 12:51:00
8:42 AM,28.4,19.4,69,30.21,10.0,West,5.8,-,N/A,,Overcast,280,2011-12-17 13:42:00
8:51 AM,28.9,19.9,69,30.29,10.0,West,5.8,-,N/A,,Overcast,270,2011-12-17 13:51:00
9:44 AM,30.2,19.4,64,30.21,10.0,NNW,5.8,-,0.00,,Overcast,330,2011-12-17 14:44:00
9:51 AM,30.0,19.9,66,30.28,8.0,North,5.8,-,0.00,,Overcast,350,2011-12-17 14:51:00
10:26 AM,28.4,21.2,74,30.22,4.0,WNW,5.8,-,0.00,Snow,Light Snow,290,2011-12-17 15:26:00
10:51 AM,28.9,21.9,75,30.29,3.0,NW,8.1,-,0.00,Snow,Light Snow,310,2011-12-17 15:51:00
11:26 AM,30.2,23.0,75,30.21,6.0,WNW,3.5,-,0.00,Snow,Light Snow,290,2011-12-17 16:26:00
11:51 AM,30.0,21.9,72,30.27,7.0,WSW,8.1,-,0.00,,Overcast,250,2011-12-17 16:51:00
12:51 PM,28.9,21.9,75,30.26,7.0,NW,8.1,-,0.00,,Overcast,320,2011-12-17 17:51:00
1:23 PM,30.2,21.2,69,30.17,10.0,NW,6.9,-,0.00,,Overcast,310,2011-12-17 18:23:00
1:51 PM,30.0,21.9,72,30.24,8.0,NW,4.6,-,0.00,,Overcast,310,2011-12-17 18:51:00
2:51 PM,28.4,21.2,74,30.17,7.0,West,8.1,-,N/A,,Overcast,280,2011-12-17 19:51:00
3:51 PM,28.9,19.9,69,30.25,10.0,West,8.1,-,N/A,,Overcast,260,2011-12-17 20:51:00
4:51 PM,28.9,19.9,69,30.26,9.0,SW,6.9,-,N/A,,Overcast,220,2011-12-17 21:51:00
5:01 PM,28.4,19.4,69,30.18,7.0,WSW,6.9,-,N/A,,Overcast,250,2011-12-17 22:01:00
5:51 PM,28.0,19.9,72,30.27,10.0,Calm,Calm,-,N/A,,Overcast,0,2011-12-17 22:51:00
6:51 PM,28.0,19.9,72,30.26,9.0,Calm,Calm,-,N/A,,Overcast,0,2011-12-17 23:51:00
7:51 PM,27.0,19.9,75,30.26,10.0,Calm,Calm,-,N/A,,Overcast,0,2011-12-18 00:51:00
8:51 PM,28.0,19.9,72,30.26,10.0,Calm,Calm,-,N/A,,Overcast,0,2011-12-18 01:51:00
9:51 PM,28.0,19.9,72,30.25,10.0,Calm,Calm,-,N/A,,Overcast,0,2011-12-18 02:51:00
10:51 PM,28.0,21.0,75,30.25,4.0,Calm,Calm,-,0.00,Snow,Light Snow,0,2011-12-18 03:51:00
11:09 PM,28.4,21.2,74,30.17,2.5,South,3.5,-,0.00,Snow,Light Snow,180,2011-12-18 04:09:00
11:16 PM,28.4,21.2,74,30.17,3.0,Calm,Calm,-,0.00,Snow,Light Snow,0,2011-12-18 04:16:00
11:25 PM,28.4,21.2,74,30.17,3.0,Calm,Calm,-,N/A,Snow,Light Snow,0,2011-12-18 04:25:00
11:34 PM,28.4,21.2,74,30.17,3.0,Variable,5.8,-,0.00,Snow,Light Snow,0,2011-12-18 04:34:00
11:51 PM,28.0,21.9,78,30.25,2.5,SW,3.5,-,0.00,Snow,Light Snow,220,2011-12-18 04:51:00